Temp
18 19 18 18 15 14 16 19 22 22 21 23 23 21 18 19 18 16 15 16 16 17 15 16 16 16 15 15 15 15 15 15 16 16 16 16 16 16 16 16 15 15 15 15 15 15 15 15 15
19 19 18 19 15 14 16 21 19 20 22 23 22 21 20 18 17 15 15 16 16 16 15 15 16 15 15 15 15 15 15 15 15 16 16 16 16 15 15 15 15 15 15 14 14 14 14 14 15
19 18 17 14 14 15 17 22 20 21 22 22 21 21 21 17 17 16 16 15 14 15 15 15 15 15 14 14 14 14 14 15 15 16 16 16 15 15 15 15 15 15 15 14 14 14 14 14 14
18 19 20 16 16 18 20 21 20 19 20 21 21 19 20 18 18 17 14 14 15 15 15 14 14 14 14 14 14 14 15 15 15 15 15 15 15 15 15 15 15 15 14 14 14 14 14 14 14
18 18 15 16 17 21 22 20 18 17 16 18 21 19 18 18 17 16 14 13 15 14 13 13 13 13 13 13 14 14 15 15 15 15 15 15 15 15 15 15 15 15 15 15 14 14 14 13 13
17 20 16 15 19 22 17 18 17 17 17 19 19 19 17 17 17 16 16 15 13 13 12 12 13 13 13 13 13 14 15 15 15 15 15 15 15 15 15 15 15 15 15 14 14 14 14 13 13
16 15 16 18 20 20 20 19 17 17 18 18 19 15 15 17 17 17 16 15 13 12 12 12 12 12 12 13 13 14 15 15 15 15 15 15 15 15 15 15 15 15 14 14 14 14 13 13 12
19 16 17 19 20 18 18 19 19 19 18 20 19 15 15 15 16 16 14 13 13 12 11 12 11 12 13 13 13 14 15 15 15 15 15 15 15 14 14 14 14 14 14 14 13 13 13 12 12
20 16 16 18 16 15 16 16 19 18 19 19 17 17 17 16 15 15 13 13 13 11 12 13 13 12 12 13 13 14 15 15 15 14 14 13 13 13 13 13 13 13 13 13 12 12 12 12 12
18 16 19 18 19 17 17 17 18 19 17 14 17 16 14 13 14 15 14 15 13 12 13 14 13 12 13 13 14 14 14 14 14 13 13 13 13 12 12 12 12 12 12 12 12 12 12 12 11
20 18 18 18 19 19 18 18 17 19 16 16 16 16 14 14 15 14 14 14 14 13 12 12 12 13 14 14 14 14 13 14 13 12 12 12 12 12 12 12 13 12 12 12 12 12 12 11 11
19 21 22 21 20 18 17 18 17 18 18 17 17 17 16 15 14 13 13 13 13 12 13 12 13 14 14 14 13 13 13 13 13 12 12 12 13 13 13 12 12 12 12 12 12 12 12 11 11
21 21 23 23 20 21 19 17 18 17 19 16 16 16 16 16 15 15 14 13 13 13 13 13 13 14 13 13 13 13 13 12 12 13 13 13 13 13 12 12 12 12 12 12 12 11 11 11 11
23 23 23 23 21 21 20 18 20 18 19 18 17 17 17 16 16 16 14 13 14 13 13 13 14 14 14 13 13 14 13 13 13 13 13 13 13 13 12 12 12 12 12 11 11 11 11 10 10
23 22 22 22 21 21 22 18 18 19 20 19 18 18 18 18 17 17 16 15 14 13 13 14 14 13 14 14 14 14 14 14 14 13 13 12 12 11 11 11 12 12 12 11 11 10 10 10 9
22 21 19 21 22 21 21 17 19 20 20 20 19 19 18 19 18 17 16 15 14 14 14 13 13 13 14 14 14 14 14 13 13 13 13 12 12 12 12 12 12 11 11 10 9 8 8 8 8
20 18 20 21 23 21 19 17 20 21 21 20 20 20 19 19 18 17 17 16 15 15 14 13 13 13 14 14 14 14 14 13 13 12 12 12 12 12 11 11 10 9 9 8 8 8 8 7 6
18 18 19 19 21 22 19 18 19 20 20 19 19 19 20 19 19 18 17 16 16 15 13 13 13 14 13 13 13 13 12 12 12 13 13 12 11 10 10 10 9 9 8 8 8 7 7 6 6
21 21 19 19 20 20 19 18 17 17 19 20 18 18 18 19 19 18 17 17 16 15 14 13 13 13 13 13 13 12 12 12 12 11 11 10 11 10 10 9 8 8 8 7 7 6 6 5 5
19 19 19 21 22 21 20 19 18 15 16 19 16 15 18 19 19 18 17 17 16 14 14 14 14 13 13 13 13 12 12 12 11 11 10 9 9 9 9 8 8 7 7 7 6 5 5 5 4
20 20 20 20 22 21 20 19 18 20 19 16 15 17 18 19 18 18 18 17 16 15 14 14 14 14 13 12 12 11 11 11 10 9 9 9 9 8 8 7 8 7 6 6 5 5 4 4 4
19 21 20 21 19 17 19 15 16 19 19 19 19 19 20 20 19 18 18 17 16 15 14 14 14 14 13 13 13 12 11 11 10 9 9 9 9 9 9 9 8 7 6 6 5 4 4 3 3
20 21 20 21 19 18 19 17 15 17 18 19 20 21 21 20 19 18 18 17 16 15 14 14 13 13 13 13 13 13 12 11 9 9 10 10 9 9 9 8 7 6 6 5 4 3 3 3 2
22 20 20 19 17 14 18 17 15 15 18 18 20 22 22 20 19 18 17 17 17 16 14 14 13 13 13 13 12 12 12 11 10 10 10 9 9 8 7 7 6 5 4 3 2 2 2 2 1
21 18 15 15 12 12 18 17 17 16 18 18 19 21 20 20 19 18 17 16 16 15 14 14 13 13 13 13 12 11 11 11 10 10 10 9 8 7 7 6 6 4 3 2 2 2 2 1 0
20 17 13 14 11 14 16 17 18 21 19 20 21 21 20 19 18 18 17 17 16 14 14 14 13 13 13 12 11 10 10 10 10 10 9 8 7 6 6 5 5 3 1 1 1 1 0 0 -1
20 17 17 13 13 12 16 18 20 18 17 17 18 17 18 19 18 18 17 16 15 14 13 13 13 12 12 11 10 10 10 9 9 9 7 6 6 5 4 4 3 2 1 1 1 0 -0 -1 -1
20 19 16 13 12 14 16 17 17 19 18 16 14 16 18 19 18 17 16 15 14 14 13 12 11 11 11 10 9 9 8 8 8 7 6 6 6 4 3 3 2 1 1 0 0 -0 -1 -1 -1
18 18 19 17 12 12 11 14 20 19 19 16 16 18 19 18 18 17 16 15 15 14 14 13 11 10 10 9 9 8 7 7 6 6 5 5 4 3 3 1 0 0 -0 -0 -0 -0 -1 -1 -1
20 19 16 10 15 10 9 13 19 19 20 21 19 19 19 18 18 17 17 16 15 15 14 13 11 10 10 9 8 7 7 6 5 4 4 4 3 2 2 1 0 -0 -1 -0 -1 -1 -1 -2 -2
Height
1519 1520 1522 1523 1533 1526 1529 1516 1502 1497 1496 1495 1492 1496 1505 1507 1511 1524 1523 1527 1530 1531 1544 1549 1549 1552 1552 1554 1556 1557 1560 1560 1563 1565 1566 1568 1568 1572 1573 1575 1576 1576 1577 1578 1579 1578 1579 1577 1577
1518 1520 1522 1521 1532 1539 1531 1502 1503 1500 1498 1497 1498 1504 1504 1514 1515 1517 1522 1526 1528 1529 1539 1548 1549 1552 1553 1555 1556 1559 1560 1562 1564 1566 1567 1568 1571 1573 1573 1576 1577 1579 1579 1580 1581 1580 1581 1580 1580
1517 1519 1521 1520 1527 1533 1524 1496 1495 1496 1500 1499 1504 1506 1511 1519 1520 1521 1523 1525 1529 1533 1539 1546 1548 1550 1553 1555 1558 1559 1560 1561 1565 1568 1570 1570 1572 1573 1574 1576 1577 1581 1581 1583 1583 1583 1583 1583 1582
1517 1518 1518 1521 1523 1507 1501 1498 1495 1500 1503 1501 1507 1514 1518 1521 1523 1523 1525 1527 1529 1534 1541 1545 1548 1550 1553 1556 1559 1561 1560 1563 1566 1569 1571 1573 1573 1574 1575 1577 1579 1581 1583 1583 1585 1585 1586 1585 1584
1517 1515 1521 1520 1513 1495 1494 1490 1496 1498 1504 1504 1505 1514 1519 1523 1525 1526 1529 1527 1527 1532 1540 1545 1547 1549 1554 1555 1561 1563 1563 1565 1567 1569 1572 1574 1575 1576 1577 1579 1580 1583 1584 1586 1586 1587 1587 1588 1586
1516 1511 1522 1524 1503 1489 1501 1500 1494 1497 1502 1505 1505 1507 1522 1525 1526 1529 1529 1527 1518 1532 1540 1543 1546 1547 1550 1557 1562 1566 1567 1566 1567 1570 1573 1576 1577 1578 1579 1580 1581 1584 1585 1587 1588 1588 1587 1588 1587
1514 1517 1518 1512 1505 1507 1504 1502 1502 1506 1505 1506 1509 1513 1525 1527 1525 1530 1533 1534 1535 1540 1541 1533 1542 1545 1553 1559 1562 1564 1567 1567 1570 1571 1574 1576 1578 1580 1581 1582 1582 1584 1586 1587 1587 1589 1588 1587 1586
1510 1514 1515 1509 1508 1515 1509 1504 1500 1503 1507 1509 1515 1517 1522 1525 1524 1525 1532 1538 1540 1545 1542 1543 1550 1552 1557 1561 1564 1565 1567 1568 1572 1572 1575 1577 1578 1580 1582 1583 1583 1586 1586 1587 1589 1588 1589 1587 1586
1510 1517 1521 1512 1514 1520 1517 1506 1504 1506 1508 1510 1519 1518 1519 1523 1525 1529 1534 1540 1545 1549 1552 1553 1552 1558 1560 1564 1566 1567 1569 1571 1572 1573 1575 1578 1579 1581 1582 1584 1585 1588 1588 1588 1589 1590 1587 1587 1586
1506 1516 1512 1508 1509 1508 1510 1512 1508 1507 1509 1518 1521 1526 1529 1532 1531 1529 1534 1535 1540 1546 1549 1551 1554 1558 1563 1564 1566 1567 1570 1572 1573 1575 1577 1578 1580 1582 1584 1585 1586 1588 1588 1588 1588 1589 1586 1584 1585
1502 1509 1505 1505 1505 1504 1503 1505 1506 1506 1510 1509 1512 1514 1528 1533 1532 1532 1536 1538 1539 1546 1548 1553 1558 1561 1563 1564 1565 1569 1570 1571 1573 1574 1577 1579 1581 1582 1583 1584 1586 1586 1586 1586 1586 1586 1586 1582 1582
1504 1498 1500 1499 1501 1501 1505 1508 1505 1505 1508 1511 1512 1515 1524 1533 1532 1532 1534 1537 1541 1546 1549 1555 1558 1561 1564 1566 1567 1569 1569 1571 1574 1576 1578 1579 1581 1582 1583 1585 1586 1586 1585 1585 1584 1583 1583 1582 1580
1497 1493 1496 1494 1495 1499 1502 1505 1507 1507 1509 1515 1517 1523 1526 1528 1533 1535 1536 1539 1543 1547 1552 1555 1558 1560 1564 1566 1568 1569 1570 1572 1575 1576 1577 1579 1580 1581 1582 1583 1583 1582 1583 1583 1582 1582 1581 1580 1578
1489 1491 1493 1491 1494 1498 1503 1506 1501 1509 1511 1515 1521 1524 1525 1529 1533 1536 1537 1540 1545 1548 1551 1555 1560 1563 1565 1566 1566 1568 1571 1571 1574 1575 1576 1577 1579 1580 1580 1580 1581 1581 1581 1580 1579 1578 1578 1576 1575
1488 1492 1491 1492 1494 1496 1500 1510 1509 1509 1513 1516 1521 1523 1524 1526 1529 1533 1535 1540 1544 1548 1550 1554 1558 1559 1562 1565 1566 1567 1567 1571 1572 1573 1574 1577 1578 1578 1578 1579 1581 1580 1578 1576 1576 1576 1575 1574 1572
1489 1493 1504 1491 1491 1493 1500 1521 1509 1510 1512 1515 1518 1521 1524 1529 1531 1533 1534 1537 1543 1547 1550 1553 1556 1558 1562 1564 1566 1567 1567 1568 1569 1571 1573 1575 1575 1577 1578 1578 1578 1575 1575 1575 1573 1573 1572 1570 1568
1495 1512 1504 1498 1488 1495 1501 1514 1507 1508 1511 1515 1518 1522 1526 1529 1532 1533 1534 1535 1540 1545 1549 1551 1555 1557 1560 1561 1563 1565 1566 1567 1569 1572 1572 1575 1576 1576 1575 1574 1574 1573 1573 1572 1571 1570 1567 1565 1563
1507 1507 1501 1502 1492 1491 1502 1506 1506 1507 1510 1516 1520 1524 1526 1529 1530 1533 1534 1536 1538 1543 1547 1550 1553 1556 1558 1561 1563 1564 1565 1566 1569 1570 1571 1573 1574 1573 1573 1573 1572 1570 1569 1568 1567 1565 1563 1561 1559
1492 1495 1502 1496 1488 1494 1497 1504 1507 1506 1508 1512 1519 1525 1528 1525 1528 1532 1534 1536 1538 1541 1544 1548 1551 1554 1557 1560 1561 1563 1563 1564 1567 1569 1571 1571 1570 1571 1571 1571 1570 1568 1566 1564 1562 1560 1558 1557 1553
1497 1504 1503 1489 1486 1492 1500 1502 1500 1506 1506 1506 1515 1519 1524 1526 1528 1531 1531 1533 1534 1537 1542 1545 1550 1553 1555 1557 1560 1561 1561 1564 1567 1568 1569 1569 1569 1569 1568 1567 1565 1563 1561 1559 1557 1555 1553 1552 1550
1499 1500 1496 1494 1488 1490 1497 1510 1509 1505 1507 1507 1513 1511 1517 1518 1523 1528 1529 1528 1531 1534 1538 1542 1547 1550 1552 1554 1557 1560 1561 1563 1563 1564 1564 1564 1565 1565 1564 1563 1561 1559 1557 1555 1553 1551 1549 1548 1547
1506 1489 1492 1490 1499 1518 1500 1538 1516 1504 1504 1506 1507 1510 1511 1515 1518 1520 1525 1526 1528 1532 1536 1539 1542 1546 1549 1551 1553 1554 1556 1557 1559 1559 1561 1562 1562 1562 1560 1558 1556 1555 1553 1551 1549 1548 1546 1544 1543
1493 1484 1489 1493 1498 1507 1507 1524 1521 1509 1510 1503 1502 1503 1505 1506 1509 1513 1519 1525 1531 1533 1535 1539 1541 1543 1546 1548 1550 1551 1552 1553 1554 1557 1558 1559 1558 1556 1555 1553 1552 1551 1549 1547 1545 1545 1544 1542 1542
1483 1488 1491 1494 1507 1534 1509 1513 1518 1511 1502 1497 1495 1497 1500 1502 1506 1512 1518 1522 1529 1533 1533 1535 1537 1540 1542 1544 1545 1546 1547 1548 1551 1553 1554 1554 1553 1552 1550 1549 1547 1547 1546 1545 1544 1542 1541 1540 1538
1488 1498 1524 1529 1541 1542 1509 1515 1506 1495 1491 1490 1489 1489 1498 1501 1506 1509 1514 1519 1524 1529 1531 1532 1533 1536 1538 1541 1542 1543 1545 1547 1548 1550 1550 1550 1548 1547 1546 1545 1544 1544 1544 1543 1542 1541 1539 1536 1536
1491 1500 1529 1538 1553 1530 1510 1514 1499 1474 1477 1482 1486 1490 1496 1501 1504 1508 1511 1515 1519 1525 1528 1528 1531 1532 1535 1537 1540 1542 1543 1545 1545 1546 1546 1546 1547 1546 1543 1542 1541 1542 1541 1539 1539 1538 1536 1534 1532
1492 1504 1493 1524 1528 1541 1513 1495 1480 1476 1481 1485 1485 1490 1496 1499 1504 1507 1510 1513 1517 1521 1525 1526 1527 1530 1532 1534 1537 1539 1540 1541 1542 1542 1542 1543 1543 1544 1544 1541 1539 1538 1537 1536 1535 1534 1533 1530 1529
1487 1488 1509 1515 1540 1537 1514 1505 1500 1488 1486 1484 1489 1492 1495 1497 1502 1505 1509 1511 1513 1519 1523 1525 1526 1528 1530 1533 1535 1537 1539 1539 1539 1539 1539 1539 1538 1539 1540 1537 1537 1536 1533 1532 1531 1529 1528 1527 1526
1493 1496 1491 1497 1518 1536 1543 1521 1484 1484 1481 1485 1486 1488 1488 1492 1497 1502 1505 1508 1512 1516 1519 1522 1523 1526 1528 1530 1533 1536 1537 1538 1537 1537 1537 1536 1536 1536 1535 1535 1535 1533 1531 1529 1527 1526 1525 1522 1521
1481 1485 1493 1527 1513 1525 1533 1521 1481 1480 1479 1478 1480 1483 1485 1487 1491 1495 1499 1502 1506 1509 1512 1515 1518 1520 1524 1527 1530 1533 1535 1535 1535 1535 1534 1535 1535 1534 1532 1532 1531 1530 1528 1526 1523 1522 1521 1517 1515
Wind_Speed
8 4 4 3 1 2 4 8 5 1 4 17 21 18 15 13 5 6 28 11 27 26 27 25 26 25 24 22 20 18 17 16 14 13 14 14 16 16 16 16 16 18 21 23 25 26 27 26 24
4 7 4 5 3 1 5 7 9 6 14 19 22 21 13 5 9 18 25 18 22 31 35 30 28 26 24 22 19 18 16 15 14 13 14 15 16 16 15 15 17 19 22 23 24 26 27 29 25
8 8 4 4 4 5 6 1 10 14 16 11 5 15 9 4 14 16 18 23 30 37 35 32 29 27 24 21 19 18 17 15 13 13 14 15 15 15 15 17 19 19 20 21 22 23 24 26 27
7 4 7 1 10 15 16 5 9 10 18 18 10 6 8 9 7 11 26 28 34 34 32 29 27 24 22 20 18 16 16 14 14 13 14 14 15 15 16 18 19 19 18 18 18 19 21 23 25
4 6 2 3 9 13 3 20 7 7 8 12 17 7 7 11 13 16 23 32 39 33 31 29 26 23 22 21 15 13 13 13 13 13 14 14 14 15 16 17 17 16 15 14 14 16 18 20 22
5 3 1 6 12 15 5 13 10 5 11 11 14 13 10 12 14 13 15 19 26 34 31 29 25 24 23 17 14 13 13 12 13 13 14 13 14 15 15 15 15 13 12 10 11 14 15 17 18
9 2 8 11 14 8 5 10 7 4 8 1 6 5 11 15 13 9 6 11 22 27 25 22 17 15 23 14 14 13 11 11 12 14 15 14 13 13 12 12 11 9 8 8 10 12 13 13 14
21 3 8 9 12 4 4 2 10 9 5 14 12 4 7 18 10 17 18 20 20 18 17 16 15 14 17 16 13 12 11 12 14 16 16 15 14 12 11 7 6 5 7 8 9 11 9 10 10
18 3 5 6 5 2 8 2 7 19 17 13 12 8 22 22 20 22 26 30 24 22 26 26 25 21 19 17 15 13 12 15 17 17 16 14 11 11 10 10 9 8 11 8 10 12 7 7 11
6 2 4 3 6 4 2 10 8 5 22 11 14 11 13 15 26 32 39 30 29 29 23 21 19 16 15 15 15 14 16 18 19 16 13 11 10 9 9 9 8 10 8 9 9 8 6 10 10
11 7 5 6 7 14 8 11 4 3 3 26 25 25 15 20 16 40 27 29 36 29 26 21 20 19 14 14 19 17 16 18 20 12 13 11 10 9 5 4 2 7 9 6 5 4 3 2 5
5 17 16 8 13 9 8 7 11 11 8 26 24 26 20 21 21 30 28 30 28 30 28 26 24 20 19 19 20 18 17 14 16 13 12 5 4 2 3 3 3 3 2 3 5 5 6 7 10
8 8 14 14 15 12 15 16 11 14 23 28 19 20 19 23 22 23 28 26 27 27 28 25 21 19 18 18 19 16 13 13 11 8 5 1 3 3 5 4 4 2 3 7 11 11 13 17 19
10 13 5 7 15 9 14 10 10 8 13 16 18 21 26 26 28 26 31 29 27 27 27 26 27 23 24 22 21 17 16 13 8 5 1 5 6 4 4 3 2 2 8 11 12 14 16 18 14
7 3 1 5 15 3 10 4 5 19 15 14 17 24 29 28 33 27 26 27 30 27 21 24 30 26 24 22 20 16 14 7 4 5 2 4 5 3 3 3 4 7 8 11 13 17 18 18 16
4 4 2 5 5 9 9 6 9 27 25 21 25 23 28 27 29 30 30 28 28 24 20 34 28 25 22 19 18 12 5 3 1 5 6 6 4 3 2 4 6 7 9 13 14 13 12 13 18
3 2 5 2 18 3 4 7 16 27 27 25 25 22 26 25 24 27 26 24 21 17 29 26 25 23 22 22 15 6 6 4 7 9 7 7 5 3 3 6 9 9 5 8 12 14 17 22 16
5 8 3 7 6 4 6 6 12 22 24 13 13 14 24 23 23 23 21 22 20 21 28 25 22 23 25 19 6 9 12 13 11 9 6 5 3 3 3 6 9 11 10 12 15 17 20 17 17
4 2 7 8 10 6 8 10 11 15 22 24 11 3 15 27 28 25 26 27 22 23 29 25 25 25 24 13 9 16 16 12 8 6 8 4 3 5 6 7 10 14 15 15 18 18 16 18 22
9 7 10 9 6 5 2 7 12 14 13 28 27 36 31 30 31 28 31 30 29 28 26 22 21 23 20 14 12 15 14 10 8 7 6 5 2 5 8 12 12 15 16 17 15 17 19 16 17
4 6 3 5 3 3 5 5 3 3 13 20 36 37 36 35 36 31 33 33 30 30 29 22 19 19 22 22 21 23 18 13 13 11 8 5 7 10 12 14 16 18 19 19 19 18 16 14 14
3 4 6 3 5 2 5 1 5 5 9 6 33 38 38 36 35 33 30 33 32 29 26 22 20 24 20 29 24 27 24 21 19 17 13 10 11 14 15 17 16 16 17 17 17 16 17 19 20
6 7 2 2 4 7 4 4 5 1 12 13 8 18 36 38 40 35 31 27 25 29 28 25 26 27 28 25 25 26 24 25 25 20 14 9 11 14 15 15 15 16 17 14 13 13 14 17 16
2 2 3 3 3 3 7 6 4 10 18 9 3 13 13 36 35 31 30 27 23 25 26 28 31 31 29 26 25 27 29 29 24 17 11 10 15 14 14 14 15 16 13 12 13 14 15 15 16
1 3 3 4 5 3 13 4 10 12 15 12 15 22 13 29 30 33 30 30 29 30 27 31 33 34 31 30 29 28 26 23 19 12 10 13 13 12 13 14 15 14 12 13 16 18 22 18 15
3 6 5 5 1 5 4 4 6 15 27 27 31 24 22 22 27 26 28 27 33 32 34 31 34 33 31 29 28 26 24 19 14 10 11 12 10 11 12 13 13 11 10 15 18 21 16 17 16
3 1 5 6 4 2 4 9 6 9 7 11 20 19 18 22 22 24 28 30 33 35 34 34 32 30 29 28 27 25 22 16 11 10 9 8 9 11 13 14 12 10 10 10 14 13 16 14 18
4 3 5 3 5 4 3 4 1 4 7 11 8 16 26 24 24 24 27 34 35 36 33 26 25 28 27 25 23 20 16 13 11 10 8 9 13 11 13 13 13 14 11 12 11 11 10 14 17
1 3 3 3 5 4 1 5 3 5 3 11 17 30 33 31 29 28 31 33 32 30 29 26 26 26 26 26 23 21 15 12 10 8 11 10 12 12 13 13 14 14 10 8 14 17 18 14 11
6 4 6 5 4 2 4 5 3 6 3 6 14 31 36 36 34 32 33 34 33 33 32 29 31 29 29 28 23 19 15 13 11 10 11 14 13 15 14 15 14 12 9 14 17 20 16 14 16
Wind_Direction
278 232 229 258 33 119 253 253 304 239 28 73 71 82 90 53 41 139 155 177 149 146 161 163 155 151 143 139 135 130 126 118 112 107 103 100 100 101 94 86 84 88 88 84 79 73 66 64 68
232 172 249 269 144 275 275 209 90 71 92 72 65 73 55 61 90 134 157 173 164 161 161 162 153 148 143 140 137 131 124 119 112 109 106 104 107 103 94 91 91 93 92 88 80 73 66 60 62
206 191 248 159 219 215 243 183 132 109 74 78 77 49 56 90 119 132 158 162 161 156 158 156 152 146 145 143 136 133 127 116 112 111 109 112 111 103 97 97 98 97 92 86 76 66 60 55 56
172 211 250 162 259 251 241 358 111 93 78 78 96 74 88 85 120 141 148 151 156 155 153 150 146 146 143 136 130 131 119 116 113 113 114 116 114 108 106 105 103 101 97 89 74 64 55 49 52
211 260 231 251 261 264 185 137 125 117 125 103 113 103 78 81 120 138 154 147 159 150 147 146 146 147 141 129 130 126 125 119 118 118 121 122 114 111 112 110 108 103 97 86 72 59 49 44 46
261 228 328 244 262 278 38 94 98 104 130 124 119 106 83 142 129 152 168 162 136 142 144 147 148 141 111 121 136 132 127 121 125 125 121 116 115 116 114 113 111 105 96 85 65 53 47 44 41
229 5 266 296 293 33 74 102 99 105 129 19 115 84 111 136 133 146 161 121 132 142 147 117 96 135 112 138 136 135 129 124 124 119 119 116 111 112 116 117 113 106 90 69 54 50 48 43 40
238 138 291 284 300 110 337 128 134 137 141 122 118 155 144 143 140 152 137 126 128 143 115 115 130 130 128 138 143 137 129 121 120 116 117 112 113 109 106 111 107 91 65 55 52 45 50 35 35
260 249 290 325 33 258 270 121 184 105 105 61 39 108 157 157 156 136 121 115 88 130 109 106 139 146 142 151 140 128 121 119 119 120 122 116 107 100 76 75 67 55 43 42 39 35 15 359 347
203 97 239 220 214 164 109 339 48 118 93 62 79 96 119 111 145 127 126 128 126 131 127 127 143 146 145 133 125 126 124 122 122 113 113 105 90 70 69 69 78 59 50 54 31 28 16 8 10
257 231 167 229 137 103 68 353 128 66 73 138 131 152 149 158 150 131 130 134 132 139 150 151 156 140 134 137 135 134 135 129 132 111 120 125 142 144 136 143 158 102 92 52 67 351 346 315 337
231 235 235 230 142 96 114 223 310 251 222 151 150 146 150 156 145 147 136 140 145 147 147 154 146 129 125 119 118 119 113 116 137 137 131 170 167 211 197 206 176 218 264 287 279 279 274 302 316
195 240 264 207 155 147 159 196 192 134 110 136 131 142 150 140 143 151 137 136 143 147 144 142 143 136 149 146 140 135 133 139 138 129 122 168 289 227 197 219 277 288 291 308 297 299 303 304 309
211 237 238 238 117 143 142 168 104 142 149 156 149 147 141 142 148 144 144 144 145 147 150 151 148 152 154 151 149 145 157 158 135 91 308 248 253 272 252 283 260 239 304 311 309 307 307 309 314
252 87 93 78 112 39 113 48 135 155 146 153 161 157 147 148 153 149 149 147 148 156 158 154 153 154 159 164 157 158 177 179 250 350 185 236 243 260 267 262 242 303 317 306 299 296 304 307 306
341 40 47 303 144 215 136 168 159 154 158 149 152 155 149 157 159 148 152 148 156 163 154 148 160 161 162 151 158 173 217 302 257 132 131 135 146 158 209 260 299 306 300 290 292 302 295 292 297
298 148 112 70 264 103 127 155 152 159 163 157 149 150 143 142 146 149 158 162 168 167 153 161 165 167 164 164 170 265 226 197 161 157 153 149 169 176 247 299 310 317 309 273 275 281 292 304 318
286 139 177 218 247 187 167 154 162 164 142 127 140 144 160 164 167 165 170 179 180 166 161 173 175 170 171 175 195 187 153 161 162 162 184 154 163 132 240 271 297 302 297 282 285 293 301 306 301
305 226 205 234 245 165 166 153 146 148 152 154 153 168 210 179 175 174 179 185 184 172 172 181 175 174 179 188 191 157 163 167 159 165 166 202 288 319 309 290 277 290 297 298 298 303 303 306 305
311 299 281 254 183 113 77 182 152 162 174 170 165 166 209 176 171 173 179 185 184 179 179 183 184 184 191 188 169 174 170 172 158 187 189 184 231 290 293 298 298 302 305 308 309 305 306 307 299
287 263 336 94 85 76 99 42 15 255 204 186 177 186 198 173 178 180 182 188 187 182 184 186 178 185 185 204 183 174 179 168 166 168 171 218 289 305 307 300 300 301 301 302 303 302 306 303 296
180 241 347 44 66 244 85 171 333 324 327 331 175 190 183 186 184 178 182 184 185 182 190 186 178 177 196 185 183 180 180 177 174 180 195 232 277 293 302 300 302 307 304 300 295 291 286 290 293
218 207 238 140 182 90 292 82 285 147 237 270 276 190 192 190 185 184 185 183 193 191 184 182 185 186 183 190 203 196 194 189 186 195 221 273 308 311 303 305 309 310 313 307 300 301 297 289 290
217 27 295 324 157 106 228 164 234 189 218 227 193 220 203 188 182 182 184 191 198 208 188 194 192 192 194 196 200 201 199 198 203 218 248 303 312 298 299 308 312 317 315 304 308 299 295 294 299
84 45 7 1 13 229 38 40 260 225 218 217 216 198 186 176 180 182 184 189 198 207 203 196 196 198 203 209 208 209 212 214 220 236 273 295 291 290 297 304 314 314 304 302 297 303 304 309 309
195 152 165 169 123 287 290 227 238 215 201 204 216 217 205 176 173 185 192 205 202 198 198 201 201 206 211 213 210 213 218 220 232 258 283 287 292 294 296 305 308 298 298 299 293 313 319 311 319
300 62 175 107 8 67 254 249 338 85 158 201 206 214 206 177 183 198 197 194 192 195 197 200 205 214 221 221 217 216 219 230 241 260 268 277 296 307 302 303 301 291 279 306 309 306 313 308 300
154 268 26 22 134 240 283 299 175 84 170 197 193 205 186 180 190 198 201 192 189 195 200 204 216 225 229 230 224 217 223 229 252 253 262 291 297 294 301 304 298 296 296 280 305 306 304 305 310
299 274 213 141 131 169 168 276 184 89 94 170 201 192 183 186 189 189 194 197 204 212 220 221 212 222 230 232 228 219 224 242 250 255 286 293 299 302 307 304 297 301 306 298 286 294 299 297 294
195 214 170 125 256 186 149 266 207 142 140 143 175 189 192 193 194 196 201 205 209 215 218 219 212 217 226 229 226 228 231 256 247 268 283 291 302 306 309 302 299 298 294 285 288 298 295 288 287